Nantucket, Massachusetts, United States (02554)
Lat: 41.28N, Lon: 70.1W
Wx Zone: MAZ024
Local Info
Past Weather Observations for Today

NOTE: This archive is for the closest National Weather Service station to Nantucket. Information may differ from the station used for current weather conditions.

Click here for Long-term Archive

Time Weather Temperature Dewpoint Humidity Pressure Winds Precip Visibility
11:53
Mostly Cloudy
34°F / 1°C 28°F / -2°C 81% 29.59 in
(1002 mb)
NNE 12.7 mph
(NNE 20 kph)
- 10SM
11:46
Mostly Cloudy
34°F / 1°C 28°F / -2°C 81% 29.59 in
(1002 mb)
N 11.5 mph
(N 19 kph)
- 10SM
10:53
Overcast
36°F / 2°C 28°F / -2°C 75% 29.62 in
(1003 mb)
N 10.4 mph
(N 17 kph)
0.00 in
(0.00 mm)
10SM
09:53
Overcast
Hazy
34°F / 1°C 28°F / -2°C 81% 29.65 in
(1004 mb)
NE 9.2 mph
(NE 15 kph)
0.00 in
(0.00 mm)
5SM
08:53
Mostly Cloudy
34°F / 1°C 28°F / -2°C 81% 29.65 in
(1004 mb)
NNE 5.8 mph
(NNE 9 kph)
- 8SM
08:43
Overcast
34°F / 1°C 30°F / -1°C 87% 29.65 in
(1004 mb)
N 9.2 mph
(N 15 kph)
- 10SM
07:53
Overcast
34°F / 1°C 28°F / -2°C 81% 29.68 in
(1005 mb)
Calm - 10SM
06:53
Overcast
34°F / 1°C 28°F / -2°C 81% 29.65 in
(1004 mb)
NNE 6.9 mph
(NNE 11 kph)
- 10SM
05:53
Overcast
32°F / 0°C 28°F / -2°C 87% 29.65 in
(1004 mb)
ENE 4.6 mph
(ENE 7 kph)
0.00 in
(0.00 mm)
10SM
05:41
Overcast
32°F / 0°C 28°F / -2°C 87% 29.65 in
(1004 mb)
NE 9.2 mph
(NE 15 kph)
0.00 in
(0.00 mm)
9SM
05:31
Overcast
Light Snow
32°F / 0°C 28°F / -2°C 87% 29.65 in
(1004 mb)
N 15 mph
(N 24 kph)
0.00 in
(0.00 mm)
7SM
05:24
Overcast
Light Snow
32°F / 0°C 28°F / -2°C 87% 29.62 in
(1003 mb)
NNE 15 mph
(NNE 24 kph)
0.00 in
(0.00 mm)
2 1/2SM
05:17
Overcast
Light Snow
32°F / 0°C 28°F / -2°C 87% 29.65 in
(1004 mb)
N 15 mph
(N 24 kph)
0.00 in
(0.00 mm)
2SM
05:10
Overcast
Light Snow
32°F / 0°C 28°F / -2°C 87% 29.65 in
(1004 mb)
N 13.8 mph
(N 22 kph)
0.00 in
(0.00 mm)
1 1/2SM
04:57
Overcast
Light Snow
32°F / 0°C 28°F / -2°C 87% 29.68 in
(1005 mb)
N 12.7 mph
(N 20 kph)
0.00 in
(0.00 mm)
2 1/2SM
04:53
Overcast
Light Snow
32°F / 0°C 28°F / -2°C 87% 29.68 in
(1005 mb)
N 12.7 mph
(N 20 kph)
0.00 in
(0.00 mm)
3SM
04:44
Overcast
Light Snow
32°F / 0°C 28°F / -2°C 87% 29.68 in
(1005 mb)
NNE 10.4 mph
(NNE 17 kph)
0.00 in
(0.00 mm)
3SM
04:38
Overcast
Light Snow
32°F / 0°C 28°F / -2°C 87% 29.68 in
(1005 mb)
NNE 11.5 mph
(NNE 19 kph)
0.00 in
(0.00 mm)
2SM
04:33
Overcast
Light Snow
32°F / 0°C 28°F / -2°C 87% 29.68 in
(1005 mb)
N 12.7 mph
(N 20 kph)
0.00 in
(0.00 mm)
1 1/2SM
04:21
Overcast
Light Snow
32°F / 0°C 28°F / -2°C 87% 29.68 in
(1005 mb)
N 12.7 mph
(N 20 kph)
0.00 in
(0.00 mm)
1 3/4SM
04:13
Overcast
Light Snow
32°F / 0°C 28°F / -2°C 87% 29.68 in
(1005 mb)
N 11.5 mph
(N 19 kph)
0.00 in
(0.00 mm)
2SM
03:53
Overcast
32°F / 0°C 27°F / -3°C 80% 29.68 in
(1005 mb)
N 13.8 mph
(N 22 kph)
- 10SM
02:53
Overcast
32°F / 0°C 27°F / -3°C 80% 29.71 in
(1006 mb)
N 11.5 mph
(N 19 kph)
- 10SM
01:53
Overcast
32°F / 0°C 27°F / -3°C 80% 29.71 in
(1006 mb)
N 13.8 mph
(N 22 kph)
- 10SM
01:11
Overcast
32°F / 0°C 27°F / -3°C 80% 29.68 in
(1005 mb)
N 19.6 mph
(N 32 kph)
- 10SM
00:53
Overcast
32°F / 0°C 27°F / -3°C 80% 29.68 in
(1005 mb)
N 18.4 mph
(N 30 kph)
- 10SM
00:03
Overcast
32°F / 0°C 27°F / -3°C 80% 29.68 in
(1005 mb)
N 21.9 mph
(N 35 kph)
- 10SM
Time Weather Temperature Dewpoint Humidity Pressure Winds Precip Visibility


Weather for websites

WeatherForYou.com, LLC is not responsible for any damages or problems caused by this service. Current weather conditions are obtained from the closest station including government and personal stations which may have varying degrees of accuracy. Weather forecasts are derived from the NOAA NDFD. Like all things, this site belongs to Jesus Christ... He just trusts us to maintain it. If you have any questions or comments email webmaster@weatherforyou.com

Copyright © 2016, WeatherForYou.com LLC. All rights reserved.